Regional Weather Roundup
Issued by NWS

Home | Current Version | Previous Version | Graphics & Text | Print | Product List | Glossary On
Versions: 1 2 3 4 5 6 7 8 9 10 11 12 13 14 15 16 17 18 19 20 21 22 23 24 25 26 27 28 29 30 31 32 33 34 35 36 37 38 39 40 41 42 43 44 45 46 47 48 49 50
000
ASUS45 KBOI 230410
RWRID
WEATHER ROUNDUP FOR IDAHO
NATIONAL WEATHER SERVICE BOISE ID
1000 PM MDT FRI AUG 22 2014

NOTE: "FAIR" INDICATES FEW OR NO CLOUDS BELOW 12000 FEET
WITH NO SIGNIFICANT WEATHER AND/OR OBSTRUCTIONS TO VISIBILITY

IDZ012-014-230500-
SOUTHWEST IDAHO


CITY           SKY/WX    TMP DP  RH WIND       PRES   REMARKS
BOISE          PTCLDY    68  41  37 N15       29.91R
CALDWELL       MOCLDY    66  39  37 N6        29.96R
MOUNTAIN HOME  MOCLDY    67  45  44 E5        29.94R
$$

IDZ016-017-230500-
SOUTHCENTRAL IDAHO


CITY           SKY/WX    TMP DP  RH WIND       PRES   REMARKS
BURLEY         TSTM      52  46  80 NE14G24   30.05S
JEROME         CLOUDY    53  50  89 SE14      30.02R
TWIN FALLS     CLOUDY    53  47  79 E14       30.02R
$$

IDZ019>023-230500-
SOUTHEAST IDAHO


CITY           SKY/WX    TMP DP  RH WIND       PRES   REMARKS
IDAHO FALLS    CLOUDY    53  52  96 N5        30.05R
POCATELLO      MOCLDY    52  51  97 CALM      30.05R
REXBURG        CLOUDY    53  49  86 NW3       30.04F
$$

IDZ006-010-011-018-031-032-230500-
CENTRAL IDAHO MOUNTAINS


CITY           SKY/WX    TMP DP  RH WIND       PRES   REMARKS
MCCALL         MOCLDY    53  42  66 VRB6      30.05R
HAILEY         CLOUDY    52  45  76 NW15G21   30.03F
STANLEY          N/A     41  38  89 CALM      30.12S
SALMON         CLOUDY    55  45  67 S6        30.03S
CHALLIS        CLOUDY    49  46  90 CALM      30.08S
$$

IDZ002-004-006-007-026-230500-
NORTHERN IDAHO


CITY           SKY/WX    TMP DP  RH WIND       PRES   REMARKS
LEWISTON       CLOUDY    62  57  83 SW7G22    30.02S
LOWELL           N/A     57  56  96 CALM      30.05R
COEUR D`ALENE  CLOUDY    63  48  59 N14       30.07R
MULLAN PASS    CLOUDY    46  44  93 VRB3      30.16R
$$


USA.gov is the U.S. government's official web portal to all federal, state and local government web resources and services.